SCP
0 0 0 0 0 0 0 0 -0 -0 -0 -0 -0 -0 -0 -0 -0 0 0 0 0 -0 0 0 0 0 0 0 0 0 -0 -0 -0 0 -0 0 0 0 0 -0 0 -0 0 -0 0
0 0 0 0 0 0 0 0 0 0 0 -0 -0 -0 -0 0 0 -0 0 -0 -0 0 0 -0 -0 0 -0 0 0 0 -0 0 0 0 0 0 0 -0 0 0 0 0 0 -0 0
0 0 0 0 0 0 0 0 0 0 0 0 -0 -0 -0 0 0 0 -0 -0 0 0 0 0 -0 -0 -0 -0 0 -0 -0 0 0 0 0 0 0 0 0 0 0 0 0 0 0
0 0 0 0 0 0 0 0 0 0 0 0 0 0 0 0 0 0 -0 -0 0 0 0 0 -0 -0 -0 -0 -0 -0 0 0 0 0 0 -0 -0 -0 0 0 0 0 0 0 0
0 0 0 0 0 0 0 0 0 0 0 0 0 0 0 0 0 0 -0 0 0 0 0 0 -0 -0 -0 -0 -0 -0 0 0 0 0 0 -0 -0 -0 -0 0 0 0 0 0 0
0 0 0 0 0 0 0 0 0 0 0 0 0 0 0 0 0 0 0 0 0 0 0 0 0 0 0 0 0 0 0 0 0 0 0 -0 0 0 0 0 0 0 0 0 0
0 0 0 0 0 0 0 0 0 0 0 0 0 0 0 0 0 0 0 0 0 0 0 0 0 0 0 0 0 0 0 0 0 0 0 0 0 0 0 0 0 0 0 0 0
0 0 0 0 0 0 0 0 0 0 0 0 0 0 0 0 0 0 0 0 0 0 0 0 0 0 0 0 0 0 0 0 0 0 0 0 0 0 0 0 0 0 0 0 0
0 0 0 0 0 0 0 0 0 0 0 0 0 0 0 0 0 0 0 0 0 0 0 0 0 0 0 0 0 0 0 0 0 0 0 0 0 0 0 0 0 0 0 0 0
0 0 0 0 0 0 0 0 0 0 0 0 0 0 0 0 0 0 0 0 0 0 0 0 0 0 0 0 0 0 0 0 0 0 0 0 0 0 0 0 0 0 0 0 0
0 0 0 0 0 0 0 0 0 0 0 0 0 0 0 0 0 0 0 0 0 0 0 0 0 0 0 0 0 0 0 0 0 0 0 0 0 0 0 0 0 0 0 0 0
0 0 0 0 0 0 0 0 0 0 0 0 0 0 0 0 0 0 0 0 0 0 0 0 0 0 0 0 0 0 0 0 0 0 0 0 0 0 0 0 0 0 0 0 0
0 0 0 0 0 0 0 0 0 0 0 0 0 0 0 0 0 0 0 0 0 0 0 0 0 0 0 0 0 0 0 0 0 0 0 0 0 0 0 0 0 0 0 0 0
0 0 0 0 0 0 0 0 0 0 0 0 0 0 0 0 0 0 0 0 0 0 0 0 0 0 0 0 0 0 0 0 0 0 0 0 0 0 0 0 0 0 0 0 0
0 0 0 0 0 0 0 0 0 0 0 0 0 0 0 0 0 0 0 0 0 0 0 0 0 0 0 0 0 0 0 0 0 0 0 0 0 0 0 0 0 0 0 0 0
0 0 0 0 0 0 0 0 0 0 0 0 0 0 0 0 0 0 0 0 0 0 0 0 0 0 0 0 0 0 0 0 0 0 0 0 0 0 0 0 0 0 0 0 0
0 0 0 0 0 0 0 0 0 0 0 0 0 0 0 0 0 0 0 0 0 0 0 0 0 0 0 0 0 0 0 0 0 0 0 0 0 0 0 0 0 0 0 0 0
0 0 0 0 0 0 0 0 0 0 0 0 0 0 0 0 0 0 0 0 0 0 0 0 0 0 0 0 0 0 0 0 0 0 0 0 0 0 0 0 0 0 0 0 0
0 0 0 0 0 0 0 0 0 0 0 0 0 0 0 0 0 0 0 0 0 0 0 0 0 0 0 0 0 0 0 0 0 0 0 0 0 0 0 0 0 0 0 0 0
0 0 0 0 0 0 0 0 0 0 0 0 0 0 0 0 0 0 0 0 0 0 0 0 0 0 0 0 0 0 0 0 0 0 0 0 0 0 0 0 0 0 0 0 0
0 0 0 0 0 0 0 0 0 0 0 0 0 0 0 0 0 0 0 0 0 0 0 0 0 0 0 0 0 0 0 0 0 0 0 0 0 0 0 0 0 0 0 0 0
0 0 0 0 0 0 0 0 0 0 0 0 0 0 0 0 0 0 0 0 0 0 0 0 0 0 0 0 0 0 0 0 0 0 0 0 0 0 0 0 0 0 0 0 0
0 0 0 0 0 0 0 0 0 0 0 0 0 0 0 0 0 0 0 0 0 0 0 0 0 0 0 0 0 0 0 0 0 0 0 0 0 0 0 0 0 0 0 0 0
0 0 0 0 0 0 0 0 0 0 0 0 0 0 0 0 0 0 0 0 0 0 0 0 0 0 0 0 0 0 0 0 0 0 0 0 0 0 0 0 0 0 0 0 0
0 0 0 0 0 0 0 0 0 0 0 0 0 0 0 0 0 0 0 0 0 0 0 0 0 0 0 0 0 0 0 0 0 0 0 0 -0 0 0 0 0 0 0 0 0
0 0 0 0 0 0 0 0 0 0 0 0 0 0 0 0 0 0 0 0 0 0 0 0 0 0 0 0 0 0 0 0 -0 -0 -0 0 -0 0 0 0 0 0 0 0 0
0 0 0 0 0 0 0 0 0 0 0 0 0 0 0 0 0 0 0 0 0 0 0 0 0 0 0 0 0 0 -0 0 0 0 0 0 -0 0 0 0 0 0 0 0 0
Wind_Speed_500mb
13 14 14 15 15 16 18 19 20 20 21 17 12 6 4 8 9 5 4 9 13 16 23 24 24 22 19 14 13 9 5 9 10 15 13 18 8 5 8 16 11 8 9 14 28
15 15 15 15 17 17 17 18 19 19 19 17 12 8 5 2 6 10 6 11 14 16 22 24 23 17 11 9 9 7 4 8 6 10 17 20 10 14 9 10 10 7 9 19 28
17 16 16 16 16 18 18 17 19 18 17 16 13 8 5 3 2 7 4 7 12 15 19 22 22 12 12 11 13 10 6 15 6 9 27 18 15 8 17 7 6 6 16 24 32
21 21 19 18 16 16 18 19 18 17 17 15 13 8 3 3 4 3 2 6 13 15 16 21 15 8 9 9 7 12 10 6 17 16 15 20 19 13 3 8 9 5 15 23 31
20 23 24 22 19 16 15 18 19 18 14 14 11 8 1 4 2 2 3 8 12 16 16 17 16 12 11 14 11 17 14 18 16 15 17 17 12 7 13 13 7 5 13 20 26
21 21 24 25 23 20 17 15 17 19 15 11 8 6 3 5 1 1 2 8 11 14 16 19 13 24 25 11 9 16 28 23 10 13 10 12 10 4 14 13 5 6 13 18 25
23 23 23 24 25 22 18 17 15 17 14 10 7 3 3 9 6 4 5 10 12 12 17 23 34 9 19 20 25 31 21 15 10 12 7 14 9 16 16 15 7 7 13 19 27
24 24 24 24 23 23 22 19 16 12 12 8 5 2 5 10 8 9 12 17 18 21 27 26 23 30 14 40 12 9 9 10 13 14 7 12 4 15 16 16 10 7 15 21 28
25 25 22 21 22 21 22 21 15 10 10 7 4 4 2 10 9 11 16 21 23 22 25 23 12 16 21 19 10 7 7 13 11 18 8 22 4 14 12 14 9 6 14 21 27
28 27 26 21 22 25 24 23 15 12 10 9 6 3 7 8 12 13 17 23 12 22 17 7 9 7 8 11 11 15 11 8 11 18 16 17 24 13 15 14 8 4 11 19 27
24 33 28 25 25 22 22 15 7 4 3 5 4 3 7 9 15 15 20 17 16 6 7 4 7 17 31 11 5 13 9 9 5 8 13 25 23 17 23 16 12 2 8 17 25
27 33 31 27 23 21 18 10 9 5 8 11 12 8 9 14 5 17 22 14 9 6 6 5 10 5 15 12 11 13 12 7 6 7 8 7 22 16 28 21 10 1 8 16 22
22 31 30 30 21 19 15 11 7 11 8 5 10 9 8 15 4 12 22 16 5 9 7 5 6 11 6 12 14 4 9 10 1 10 4 12 13 13 19 16 12 4 5 13 20
20 19 34 30 24 14 11 7 5 7 5 6 5 4 7 7 4 9 17 9 4 11 7 6 6 7 12 8 6 9 6 14 16 10 6 3 8 10 18 23 20 10 4 9 14
27 31 34 31 12 4 3 5 5 10 8 7 5 4 12 3 8 6 8 6 10 11 7 8 13 11 7 3 2 6 11 11 7 5 4 10 8 7 14 24 24 20 10 7 9
22 27 37 36 30 18 9 9 9 8 15 0 1 5 9 6 2 6 7 8 14 8 14 8 3 3 5 7 5 25 14 10 6 1 7 7 8 8 13 16 33 26 17 11 9
14 18 37 44 30 28 27 9 7 10 3 7 6 7 5 9 5 4 10 6 7 10 7 4 5 3 6 14 9 4 10 4 5 7 7 5 8 15 12 13 33 39 29 20 17
29 19 30 51 39 39 43 9 12 4 6 4 7 10 8 11 5 5 14 12 6 3 5 8 8 18 11 3 7 16 6 7 10 7 2 4 13 4 4 16 33 36 32 27 27
31 20 25 51 43 48 43 6 10 10 7 21 7 7 10 6 6 7 14 12 24 28 9 12 8 1 2 3 1 11 13 5 9 3 4 8 8 8 16 19 31 35 33 33 32
7 13 33 50 45 61 8 16 10 7 9 6 14 14 14 14 12 12 18 9 14 25 9 16 3 2 5 3 3 8 2 6 2 8 10 6 11 13 31 37 33 37 41 40 38
9 9 13 38 55 25 8 15 11 16 5 8 5 7 8 15 18 11 10 4 10 16 13 11 1 5 6 20 20 10 8 9 4 4 6 4 9 1 35 47 47 51 50 48 46
11 3 21 50 12 12 7 12 15 9 13 5 5 3 14 16 17 18 17 7 19 34 21 18 5 11 11 5 3 3 10 16 11 13 6 3 11 2 5 44 57 56 53 50 51
9 14 52 59 10 10 6 7 10 10 11 13 10 12 4 9 9 15 13 2 22 23 25 21 11 7 4 2 5 15 20 14 4 2 16 11 8 3 7 36 54 58 56 53 56
8 7 17 35 19 9 14 10 11 19 11 17 9 11 10 9 10 11 11 3 7 9 10 15 8 9 12 6 10 13 22 34 25 10 12 28 23 11 19 32 51 58 61 60 62
19 12 19 13 26 13 18 21 20 18 13 30 10 23 22 11 6 10 6 7 3 10 5 4 8 6 7 2 7 7 14 36 45 45 23 22 41 27 34 38 68 66 59 61 62
12 12 11 5 17 35 20 29 39 34 25 17 23 36 20 17 15 20 17 9 8 12 12 5 4 3 6 7 12 14 27 28 44 47 48 43 49 13 43 41 50 63 67 69 69
39 52 22 16 15 24 37 54 36 27 31 28 46 13 27 34 16 10 14 13 16 19 13 18 12 8 8 1 4 13 38 46 34 37 42 36 49 25 23 40 61 71 81 85 88
Wind_Direction_500mb
13 2 353 345 344 346 351 355 2 10 1 9 6 345 348 47 90 136 120 137 141 144 144 134 129 129 132 90 84 107 118 141 149 170 137 152 152 90 86 97 78 71 61 351 344
14 4 354 347 340 339 344 347 353 360 2 359 7 348 285 327 86 83 100 135 144 150 154 148 143 135 81 66 32 32 142 132 114 124 150 151 148 135 162 129 92 100 26 346 348
15 5 356 347 343 336 335 341 344 351 355 352 3 356 282 259 147 21 72 141 159 157 164 168 154 131 78 58 27 27 78 133 113 132 143 140 133 139 152 124 97 38 350 350 350
1 359 354 346 341 338 334 333 335 340 345 336 350 347 300 230 226 328 104 162 166 163 161 168 164 96 76 90 55 100 82 111 133 133 140 154 143 140 143 122 124 35 356 347 352
353 354 351 346 338 336 334 331 327 327 337 331 330 347 268 169 135 334 147 167 165 173 178 174 165 124 106 103 96 88 123 111 117 115 111 131 135 148 149 146 152 355 344 352 354
341 345 350 346 339 334 330 329 326 322 326 326 321 329 223 194 250 295 125 160 177 181 185 176 180 135 101 78 46 115 124 120 129 128 129 147 139 181 182 175 192 319 351 356 357
346 335 338 345 343 335 330 324 324 319 318 321 312 308 232 187 200 164 118 142 154 172 176 152 140 130 115 107 117 119 106 116 136 153 144 145 193 223 176 184 215 327 352 358 1
343 337 331 336 345 345 335 326 323 318 311 315 295 270 194 174 156 148 128 130 120 130 142 136 123 112 85 120 95 108 149 173 173 182 171 195 227 175 177 197 232 323 349 357 5
326 329 324 328 332 348 346 333 320 311 312 310 273 197 222 172 169 154 145 139 135 132 129 127 125 92 129 138 123 192 197 202 178 207 172 210 305 164 179 204 224 327 348 358 4
308 313 320 318 320 323 328 330 314 300 295 283 239 172 196 194 168 161 159 149 132 139 124 129 87 120 150 192 209 182 199 196 198 185 210 210 251 182 190 204 215 310 354 3 10
295 305 305 312 319 323 334 333 318 318 327 254 198 188 154 173 164 170 161 163 148 152 172 53 193 201 191 179 93 128 151 160 124 143 210 230 249 220 195 197 203 269 1 10 16
277 291 295 298 314 319 327 339 324 310 305 245 232 223 192 187 175 167 166 162 173 172 149 151 224 83 111 129 129 136 148 156 124 156 235 254 258 234 195 202 197 168 15 13 15
277 293 281 283 297 307 309 314 322 333 274 257 216 194 198 202 231 179 176 156 126 146 200 180 91 138 137 155 151 160 194 174 43 161 218 293 251 198 195 188 165 134 47 27 24
244 277 272 267 289 289 282 292 356 17 346 201 182 192 179 182 206 175 163 143 82 154 127 80 130 173 149 180 216 191 160 144 140 186 251 299 286 201 184 193 195 175 115 49 37
242 266 284 264 238 200 252 184 76 55 286 70 147 180 135 191 136 68 137 120 146 132 192 155 157 162 172 85 273 112 135 117 119 148 302 188 242 139 180 207 197 183 159 99 67
269 247 264 263 241 212 164 173 109 54 242 268 26 173 137 84 354 112 90 95 111 91 49 89 73 19 84 67 22 139 109 81 85 153 237 150 237 219 192 210 185 169 161 140 116
251 244 257 259 242 208 152 119 64 220 97 185 191 194 162 141 151 187 142 152 169 138 177 141 123 97 162 99 118 244 167 192 219 195 256 132 205 276 192 185 178 164 161 153 129
239 271 245 238 232 186 156 66 224 218 196 77 127 141 201 152 159 177 144 189 165 93 111 160 222 182 166 235 185 198 268 224 227 216 119 139 232 210 113 136 154 154 154 150 140
262 268 236 226 211 174 133 164 228 217 153 152 111 167 202 191 207 191 204 208 194 182 159 172 253 121 32 55 236 176 217 23 97 59 269 215 236 186 154 147 155 160 163 162 154
287 236 219 214 193 164 93 182 233 287 141 176 203 196 173 188 189 203 186 207 185 192 159 185 186 189 146 140 227 242 64 144 253 216 241 206 268 231 191 185 180 178 179 173 166
221 224 221 194 165 154 186 202 211 216 221 156 266 171 213 180 191 198 195 225 168 166 193 131 216 127 165 206 188 167 199 215 265 207 243 263 239 126 199 188 182 183 183 179 175
225 227 181 175 146 198 192 181 187 174 159 19 357 246 196 184 188 204 214 226 160 145 164 177 162 184 207 156 293 268 246 200 216 199 231 301 265 112 204 187 182 181 184 184 180
226 149 169 180 192 203 133 185 218 136 174 161 214 237 156 202 241 215 198 91 160 168 160 169 205 158 197 198 190 222 211 224 153 84 204 186 238 89 188 181 185 180 185 185 185
227 165 184 208 225 218 177 196 203 199 187 174 195 172 154 221 233 224 179 143 163 180 113 161 194 233 209 125 127 199 204 203 203 211 200 230 245 190 190 188 186 189 185 185 189
217 222 181 194 219 196 178 174 194 199 222 177 203 217 186 171 180 227 168 129 129 184 120 151 231 231 248 153 193 217 205 201 209 223 216 237 229 214 196 193 194 189 185 186 191
250 202 203 267 193 198 199 212 204 197 165 203 227 203 202 187 198 186 168 178 186 184 162 73 255 257 263 212 228 251 242 222 223 231 242 250 262 239 206 195 184 186 186 192 194
239 259 236 200 181 182 211 221 218 199 211 222 207 166 205 212 158 110 213 277 225 182 166 157 165 176 256 291 256 262 226 218 217 225 219 224 241 202 183 187 191 191 193 196 197
Wind_Speed_850mb
13 14 14 15 15 16 18 19 20 20 21 17 12 6 4 8 9 5 4 9 13 16 23 24 24 22 19 14 13 9 5 9 10 15 13 18 8 5 8 16 11 8 9 14 28
15 15 15 15 17 17 17 18 19 19 19 17 12 8 5 2 6 10 6 11 14 16 22 24 23 17 11 9 9 7 4 8 6 10 17 20 10 14 9 10 10 7 9 19 28
17 16 16 16 16 18 18 17 19 18 17 16 13 8 5 3 2 7 4 7 12 15 19 22 22 12 12 11 13 10 6 15 6 9 27 18 15 8 17 7 6 6 16 24 32
21 21 19 18 16 16 18 19 18 17 17 15 13 8 3 3 4 3 2 6 13 15 16 21 15 8 9 9 7 12 10 6 17 16 15 20 19 13 3 8 9 5 15 23 31
20 23 24 22 19 16 15 18 19 18 14 14 11 8 1 4 2 2 3 8 12 16 16 17 16 12 11 14 11 17 14 18 16 15 17 17 12 7 13 13 7 5 13 20 26
21 21 24 25 23 20 17 15 17 19 15 11 8 6 3 5 1 1 2 8 11 14 16 19 13 24 25 11 9 16 28 23 10 13 10 12 10 4 14 13 5 6 13 18 25
23 23 23 24 25 22 18 17 15 17 14 10 7 3 3 9 6 4 5 10 12 12 17 23 34 9 19 20 25 31 21 15 10 12 7 14 9 16 16 15 7 7 13 19 27
24 24 24 24 23 23 22 19 16 12 12 8 5 2 5 10 8 9 12 17 18 21 27 26 23 30 14 40 12 9 9 10 13 14 7 12 4 15 16 16 10 7 15 21 28
25 25 22 21 22 21 22 21 15 10 10 7 4 4 2 10 9 11 16 21 23 22 25 23 12 16 21 19 10 7 7 13 11 18 8 22 4 14 12 14 9 6 14 21 27
28 27 26 21 22 25 24 23 15 12 10 9 6 3 7 8 12 13 17 23 12 22 17 7 9 7 8 11 11 15 11 8 11 18 16 17 24 13 15 14 8 4 11 19 27
24 33 28 25 25 22 22 15 7 4 3 5 4 3 7 9 15 15 20 17 16 6 7 4 7 17 31 11 5 13 9 9 5 8 13 25 23 17 23 16 12 2 8 17 25
27 33 31 27 23 21 18 10 9 5 8 11 12 8 9 14 5 17 22 14 9 6 6 5 10 5 15 12 11 13 12 7 6 7 8 7 22 16 28 21 10 1 8 16 22
22 31 30 30 21 19 15 11 7 11 8 5 10 9 8 15 4 12 22 16 5 9 7 5 6 11 6 12 14 4 9 10 1 10 4 12 13 13 19 16 12 4 5 13 20
20 19 34 30 24 14 11 7 5 7 5 6 5 4 7 7 4 9 17 9 4 11 7 6 6 7 12 8 6 9 6 14 16 10 6 3 8 10 18 23 20 10 4 9 14
27 31 34 31 12 4 3 5 5 10 8 7 5 4 12 3 8 6 8 6 10 11 7 8 13 11 7 3 2 6 11 11 7 5 4 10 8 7 14 24 24 20 10 7 9
22 27 37 36 30 18 9 9 9 8 15 0 1 5 9 6 2 6 7 8 14 8 14 8 3 3 5 7 5 25 14 10 6 1 7 7 8 8 13 16 33 26 17 11 9
14 18 37 44 30 28 27 9 7 10 3 7 6 7 5 9 5 4 10 6 7 10 7 4 5 3 6 14 9 4 10 4 5 7 7 5 8 15 12 13 33 39 29 20 17
29 19 30 51 39 39 43 9 12 4 6 4 7 10 8 11 5 5 14 12 6 3 5 8 8 18 11 3 7 16 6 7 10 7 2 4 13 4 4 16 33 36 32 27 27
31 20 25 51 43 48 43 6 10 10 7 21 7 7 10 6 6 7 14 12 24 28 9 12 8 1 2 3 1 11 13 5 9 3 4 8 8 8 16 19 31 35 33 33 32
7 13 33 50 45 61 8 16 10 7 9 6 14 14 14 14 12 12 18 9 14 25 9 16 3 2 5 3 3 8 2 6 2 8 10 6 11 13 31 37 33 37 41 40 38
9 9 13 38 55 25 8 15 11 16 5 8 5 7 8 15 18 11 10 4 10 16 13 11 1 5 6 20 20 10 8 9 4 4 6 4 9 1 35 47 47 51 50 48 46
11 3 21 50 12 12 7 12 15 9 13 5 5 3 14 16 17 18 17 7 19 34 21 18 5 11 11 5 3 3 10 16 11 13 6 3 11 2 5 44 57 56 53 50 51
9 14 52 59 10 10 6 7 10 10 11 13 10 12 4 9 9 15 13 2 22 23 25 21 11 7 4 2 5 15 20 14 4 2 16 11 8 3 7 36 54 58 56 53 56
8 7 17 35 19 9 14 10 11 19 11 17 9 11 10 9 10 11 11 3 7 9 10 15 8 9 12 6 10 13 22 34 25 10 12 28 23 11 19 32 51 58 61 60 62
19 12 19 13 26 13 18 21 20 18 13 30 10 23 22 11 6 10 6 7 3 10 5 4 8 6 7 2 7 7 14 36 45 45 23 22 41 27 34 38 68 66 59 61 62
12 12 11 5 17 35 20 29 39 34 25 17 23 36 20 17 15 20 17 9 8 12 12 5 4 3 6 7 12 14 27 28 44 47 48 43 49 13 43 41 50 63 67 69 69
39 52 22 16 15 24 37 54 36 27 31 28 46 13 27 34 16 10 14 13 16 19 13 18 12 8 8 1 4 13 38 46 34 37 42 36 49 25 23 40 61 71 81 85 88
Wind_Direction_850mb
13 2 353 345 344 346 351 355 2 10 1 9 6 345 348 47 90 136 120 137 141 144 144 134 129 129 132 90 84 107 118 141 149 170 137 152 152 90 86 97 78 71 61 351 344
14 4 354 347 340 339 344 347 353 360 2 359 7 348 285 327 86 83 100 135 144 150 154 148 143 135 81 66 32 32 142 132 114 124 150 151 148 135 162 129 92 100 26 346 348
15 5 356 347 343 336 335 341 344 351 355 352 3 356 282 259 147 21 72 141 159 157 164 168 154 131 78 58 27 27 78 133 113 132 143 140 133 139 152 124 97 38 350 350 350
1 359 354 346 341 338 334 333 335 340 345 336 350 347 300 230 226 328 104 162 166 163 161 168 164 96 76 90 55 100 82 111 133 133 140 154 143 140 143 122 124 35 356 347 352
353 354 351 346 338 336 334 331 327 327 337 331 330 347 268 169 135 334 147 167 165 173 178 174 165 124 106 103 96 88 123 111 117 115 111 131 135 148 149 146 152 355 344 352 354
341 345 350 346 339 334 330 329 326 322 326 326 321 329 223 194 250 295 125 160 177 181 185 176 180 135 101 78 46 115 124 120 129 128 129 147 139 181 182 175 192 319 351 356 357
346 335 338 345 343 335 330 324 324 319 318 321 312 308 232 187 200 164 118 142 154 172 176 152 140 130 115 107 117 119 106 116 136 153 144 145 193 223 176 184 215 327 352 358 1
343 337 331 336 345 345 335 326 323 318 311 315 295 270 194 174 156 148 128 130 120 130 142 136 123 112 85 120 95 108 149 173 173 182 171 195 227 175 177 197 232 323 349 357 5
326 329 324 328 332 348 346 333 320 311 312 310 273 197 222 172 169 154 145 139 135 132 129 127 125 92 129 138 123 192 197 202 178 207 172 210 305 164 179 204 224 327 348 358 4
308 313 320 318 320 323 328 330 314 300 295 283 239 172 196 194 168 161 159 149 132 139 124 129 87 120 150 192 209 182 199 196 198 185 210 210 251 182 190 204 215 310 354 3 10
295 305 305 312 319 323 334 333 318 318 327 254 198 188 154 173 164 170 161 163 148 152 172 53 193 201 191 179 93 128 151 160 124 143 210 230 249 220 195 197 203 269 1 10 16
277 291 295 298 314 319 327 339 324 310 305 245 232 223 192 187 175 167 166 162 173 172 149 151 224 83 111 129 129 136 148 156 124 156 235 254 258 234 195 202 197 168 15 13 15
277 293 281 283 297 307 309 314 322 333 274 257 216 194 198 202 231 179 176 156 126 146 200 180 91 138 137 155 151 160 194 174 43 161 218 293 251 198 195 188 165 134 47 27 24
244 277 272 267 289 289 282 292 356 17 346 201 182 192 179 182 206 175 163 143 82 154 127 80 130 173 149 180 216 191 160 144 140 186 251 299 286 201 184 193 195 175 115 49 37
242 266 284 264 238 200 252 184 76 55 286 70 147 180 135 191 136 68 137 120 146 132 192 155 157 162 172 85 273 112 135 117 119 148 302 188 242 139 180 207 197 183 159 99 67
269 247 264 263 241 212 164 173 109 54 242 268 26 173 137 84 354 112 90 95 111 91 49 89 73 19 84 67 22 139 109 81 85 153 237 150 237 219 192 210 185 169 161 140 116
251 244 257 259 242 208 152 119 64 220 97 185 191 194 162 141 151 187 142 152 169 138 177 141 123 97 162 99 118 244 167 192 219 195 256 132 205 276 192 185 178 164 161 153 129
239 271 245 238 232 186 156 66 224 218 196 77 127 141 201 152 159 177 144 189 165 93 111 160 222 182 166 235 185 198 268 224 227 216 119 139 232 210 113 136 154 154 154 150 140
262 268 236 226 211 174 133 164 228 217 153 152 111 167 202 191 207 191 204 208 194 182 159 172 253 121 32 55 236 176 217 23 97 59 269 215 236 186 154 147 155 160 163 162 154
287 236 219 214 193 164 93 182 233 287 141 176 203 196 173 188 189 203 186 207 185 192 159 185 186 189 146 140 227 242 64 144 253 216 241 206 268 231 191 185 180 178 179 173 166
221 224 221 194 165 154 186 202 211 216 221 156 266 171 213 180 191 198 195 225 168 166 193 131 216 127 165 206 188 167 199 215 265 207 243 263 239 126 199 188 182 183 183 179 175
225 227 181 175 146 198 192 181 187 174 159 19 357 246 196 184 188 204 214 226 160 145 164 177 162 184 207 156 293 268 246 200 216 199 231 301 265 112 204 187 182 181 184 184 180
226 149 169 180 192 203 133 185 218 136 174 161 214 237 156 202 241 215 198 91 160 168 160 169 205 158 197 198 190 222 211 224 153 84 204 186 238 89 188 181 185 180 185 185 185
227 165 184 208 225 218 177 196 203 199 187 174 195 172 154 221 233 224 179 143 163 180 113 161 194 233 209 125 127 199 204 203 203 211 200 230 245 190 190 188 186 189 185 185 189
217 222 181 194 219 196 178 174 194 199 222 177 203 217 186 171 180 227 168 129 129 184 120 151 231 231 248 153 193 217 205 201 209 223 216 237 229 214 196 193 194 189 185 186 191
250 202 203 267 193 198 199 212 204 197 165 203 227 203 202 187 198 186 168 178 186 184 162 73 255 257 263 212 228 251 242 222 223 231 242 250 262 239 206 195 184 186 186 192 194
239 259 236 200 181 182 211 221 218 199 211 222 207 166 205 212 158 110 213 277 225 182 166 157 165 176 256 291 256 262 226 218 217 225 219 224 241 202 183 187 191 191 193 196 197